Location: Chimay
(50.0486°N, 4.3171°E)
Time: 20:39:25
(UTC+00:00)

Cosmos 1842 - Pass Details

Date: 08 August 2020
Orbit: 520 x 538 km, 82.5° (Epoch: 22 September)

Event Time Altitude Azimuth Distance (km) Brightness Sun altitude
Rises 23:12:47 0° 355° (N) 2,702 8.3 -23.7°
Reaches altitude 10° 23:15:04 10° 3° (N) 1,803 7.0 -23.8°
Enters shadow 23:18:38 39° 67° (ENE) 812 4.2 -23.8°
